{"data":{"norad_id":68937,"intl_designator":"2026-098U","name":"KUIPER-00432","alt_names":[],"object_type":"PAYLOAD","status":"ACTIVE","operator":null,"country":"US","launch_date":"2026-04-30","launch_site_code":"FRGUI","launch_vehicle":null,"mission":null,"orbit_class":"UNKNOWN","rcs_meters":null,"size_class":null,"mass_kg":null,"dimensions":null,"purposes":[],"wikipedia_slug":null,"has_3d_model":false,"image_url":null,"decayed_at":null,"tle_current":{"epoch":"2026-05-25T01:47:29.536224Z","epoch_age_seconds":68717,"freshness":"FRESH","line1":"1 68937U 26098U   26145.07464741 -.00022890  00000+0 -70135-3 0  9990","line2":"2 68937  51.8737 179.3448 0013283  68.7423 291.4979 15.32751274  3796","mean_motion":15.32751274,"eccentricity":0.0013283,"inclination_deg":51.8737,"raan_deg":179.3448,"arg_perigee_deg":68.7423,"mean_anomaly_deg":291.4979,"bstar":-0.00070135,"rev_number":379,"period_min":93.948706774978,"perigee_km":458.51479035284,"apogee_km":476.70119650238,"semimajor_km":6845.7449934276,"source":"CELESTRAK","updated_at":"2026-05-25T13:38:08.796275Z"}}}